x

9410840 - Santa Monica Pier (icac1) Weather Station

7:54 - Sun 21st Sep 2014 All times are PDT. -7 hours from GMT.

  • Wind
    1mph
  • Sea Temp 68°f
  • Air Temp 68°f
  • Sea Pressure 1015.5mb
  • 9410840 - Santa Monica Pier
  • 9410840 - Santa Monica Pier

More Historic Weather Station data

Upgrade to MSW Pro to gain access to the past 30 days of data for over 8000 Wavebouys and Weather Stations around the globe.

Join Pro

Comparision Forecast

View Surf forecast
   
dim. 09/21 7:54 1
mph
1015.5mb 68f 68f
7:48  -  1 mph 1015.5mb 68f 68f
7:42  -  1 mph 1015.6mb 68f 68f
7:36 1 3 mph 1015.6mb 68f 68f
7:30 1 2 mph 1015.5mb 68f 67f
7:24 2 3 mph 1015.5mb 68f 67f
7:18 2 3 mph 1015.4mb 68f 67f
7:12 2 5 mph 1015.4mb 68f 67f
7:06 2 3 mph 1015.3mb 68f 67f
7:00 2
mph
1015.1mb 68f 67f
6:54 1 2 mph 1015mb 68f 67f
6:48 2 3 mph 1015mb 68f 67f
6:42 2 3 mph 1014.9mb 68f 67f
6:36 2 3 mph 1014.9mb 68f 67f
6:30 5
mph
1014.9mb 68f 67f
6:24 2 5 mph 1014.8mb 68f 67f
6:18 2 5 mph 1014.8mb 68f 67f
6:12 5 6 mph 1014.7mb 68f 67f
6:06 5 6 mph 1014.7mb 68f 67f
6:00 3 6 mph 1014.5mb 68f 66f
5:54 5 6 mph 1014.4mb 68f 66f
5:48 3 5 mph 1014.3mb 68f 66f
5:42 5
mph
1014.3mb 68f 66f
5:36 3 5 mph 1014.3mb 68f 66f
5:30 3 6 mph 1014.2mb 68f 66f
5:24 3 5 mph 1014.2mb 68f 66f
5:18 5 6 mph 1014.2mb 68f 66f
5:12 6 7 mph 1014.1mb 68f 66f
5:06 6
mph
1014.1mb 68f 66f
5:00 5 6 mph 1014.1mb 68f 66f
4:54 6
mph
1014.1mb 68f 65f
4:48 6 7 mph 1014.1mb 68f 66f
4:42 6 7 mph 1014.1mb 68f 65f
4:36 6 7 mph 1014mb 68f 66f
4:30 6 7 mph 1013.9mb 68f 65f
4:24 7
mph
1013.9mb 68f 65f
4:18 6 7 mph 1013.9mb 68f 65f
4:12 6 7 mph 1013.9mb 68f 66f
4:06 6 7 mph 1013.9mb 68f 66f
4:00 7 8 mph 1013.9mb 69f 66f
3:54 6 7 mph 1014mb 69f 66f
3:48 6
mph
1014mb 69f 66f
3:42 5 7 mph 1013.9mb 69f 65f
3:36 6 7 mph 1013.9mb 69f 66f
3:30 5 8 mph 1014mb 69f 66f
3:24 6 7 mph 1014mb 69f 66f
3:18 5
mph
1014mb 69f 66f
3:12 5 6 mph 1014mb 69f 66f
3:06 5 6 mph 1014mb 69f 66f
3:00 5 6 mph 1014.1mb 69f 66f
2:54 5 6 mph 1014mb 69f 66f
2:48 5 6 mph 1014mb 69f 66f
2:42 5 7 mph 1014mb 69f 66f
2:36 6 7 mph 1014mb 69f 66f
2:30 6 7 mph 1014mb 69f 66f
2:24 5 7 mph 1014mb 68f 66f
2:18 5 6 mph 1014mb 68f 66f
2:12 5 6 mph 1014mb 68f 66f
2:06 5 6 mph 1014.1mb 68f 66f
2:00 5 6 mph 1014.1mb 69f 66f
1:54 6 7 mph 1014.1mb 68f 66f
1:48 5 6 mph 1014.1mb 68f 66f
1:42 5 6 mph 1014.1mb 68f 66f
1:36 3 5 mph 1014.2mb 68f 66f
1:30 3 5 mph 1014.1mb 69f 66f
1:24 2 3 mph 1014.1mb 69f 66f
1:18 3
mph
1014.1mb 69f 66f
1:12 2
mph
1014.1mb 69f 66f
1:06 1 3 mph 1014.1mb 69f 66f
1:00 2 3 mph 1014.1mb 69f 66f
12:54 2 3 mph 1014.1mb 69f 66f
12:48  -  1 mph 1014mb 69f 66f
12:42  -  mph 1014mb 69f 66f
12:36  -  1 mph 1014.1mb 69f 66f
12:30  -  1 mph 1014mb 69f 67f
12:24  -  1 mph 1014mb 69f 67f
12:18  -  2 mph 1014mb 69f 67f
12:12 2
mph
1014mb 69f 67f
12:06 1 2 mph 1014mb 69f 67f
12:00 1 2 mph 1014mb 69f 67f
sam. 09/20 11:54 2
mph
1014mb 69f 67f
11:48 2 3 mph 1014mb 69f 67f
11:42 1 2 mph 1014mb 69f 67f
11:36 1
mph
1014mb 68f 67f
11:30 1 2 mph 1014mb 69f 68f
11:24 1 3 mph 1014mb 68f 68f
11:18 3
mph
1014mb 69f 68f
11:12 2 3 mph 1014mb 69f 68f
11:06  -  1 mph 1014mb 68f 67f
11:00  -  1 mph 1013.9mb 69f 68f
10:54 1
mph
1013.9mb 69f 67f
10:48 1 2 mph 1013.9mb 69f 67f
10:42 2
mph
1013.8mb 69f 67f
10:36 1
mph
1013.8mb 69f 67f
10:30  -  1 mph 1013.8mb 69f 67f
10:24  -  1 mph 1013.7mb 69f 67f
10:18  -  1 mph 1013.7mb 69f 67f
10:12  -  mph 1013.7mb 69f 67f
10:06  -  1 mph 1013.6mb 69f 67f
10:00  -  2 mph 1013.5mb 69f 67f
9:54 1 2 mph 1013.5mb 69f 67f
9:48 1 3 mph 1013.5mb 69f 67f
9:42 2 5 mph 1013.5mb 69f 68f
9:36 5 6 mph 1013.5mb 69f 68f
9:30 6 7 mph 1013.5mb 69f 68f
9:24 6 7 mph 1013.4mb 69f 68f
9:18 6
mph
1013.3mb 69f 68f
9:12 6 7 mph 1013.4mb 69f 68f
9:06 7
mph
1013.4mb 69f 68f
9:00 7
mph
1013.4mb 69f 68f
8:54 7 8 mph 1013.3mb 69f 69f
8:48 6 7 mph 1013.3mb 70f 68f
8:42 7 8 mph 1013.2mb 70f 69f
8:36 7 8 mph 1013.3mb 70f 69f
8:30 7 8 mph 1013.2mb 70f 68f
8:24 8 9 mph 1013.2mb 70f 69f
8:18 8 9 mph 1013.1mb 70f 69f
8:12 8 9 mph 1013.1mb 70f 68f
8:06 7 9 mph 1013mb 70f 69f
8:00 8 9 mph 1013mb 71f 68f
7:54 8 9 mph 1012.9mb 71f 68f
7:48 8 9 mph 1012.8mb 71f 68f
7:42 8 9 mph 1012.8mb 71f 68f
7:36 8 9 mph 1012.8mb 71f 68f
7:30 8 10 mph 1012.8mb 71f 69f
7:24 8 10 mph 1012.8mb 71f 68f
7:18 9
mph
1012.8mb 71f 68f
7:12 8 9 mph 1012.7mb 71f 69f
7:06 9 10 mph 1012.7mb 71f 68f
7:00 9 10 mph 1012.7mb 71f 68f
6:54 8 10 mph 1012.7mb 71f 69f
6:48 9 10 mph 1012.6mb 71f 69f
6:42 10 11 mph 1012.6mb 71f 69f
6:36 9 11 mph 1012.6mb 71f 69f
6:30 9 11 mph 1012.6mb 71f 69f
6:24 9 11 mph 1012.6mb 71f 69f
6:18 10 11 mph 1012.5mb 71f 69f
6:12 10 11 mph 1012.5mb 71f 69f
6:06 10 13 mph 1012.5mb 71f 69f
6:00 10 13 mph 1012.4mb 71f 69f
5:54 10 13 mph 1012.4mb 71f 69f
5:48 10 14 mph 1012.5mb 71f 69f
5:42 11 14 mph 1012.4mb 71f 69f
5:36 11 13 mph 1012.4mb 71f 69f
5:30 11 13 mph 1012.4mb 70f 69f
5:24 11 13 mph 1012.3mb 70f 69f
5:18 10 13 mph 1012.3mb 70f 69f
5:12 11 13 mph 1012.3mb 70f 69f
5:06 11 14 mph 1012.4mb 70f 69f
5:00 11 13 mph 1012.4mb 70f 69f
4:54 10 14 mph 1012.3mb 70f 69f
4:48 11 13 mph 1012.3mb 70f 69f
4:42 11 13 mph 1012.3mb 70f 69f
4:36 10 11 mph 1012.4mb 70f 69f
4:30 11 14 mph 1012.5mb 70f 69f
4:24 11 13 mph 1012.5mb 70f 69f
4:18 11 13 mph 1012.5mb 70f 69f
4:12 11 13 mph 1012.6mb 70f 69f
4:06 11 13 mph 1012.6mb 70f 69f
4:00 11 13 mph 1012.6mb 70f 69f
3:54 10 11 mph 1012.7mb 70f 70f
3:48 10
mph
1012.7mb 70f 69f
3:42 9 10 mph 1012.8mb 70f 70f
3:36 9 10 mph 1012.8mb 70f 70f
3:30 9 10 mph 1012.7mb 69f 70f
3:24 9
mph
1012.7mb 69f 69f
3:18 8 9 mph 1012.8mb 69f 70f
3:12 8
mph
1012.8mb 69f 70f
3:06 8
mph
1012.8mb 69f 69f
3:00 8 9 mph 1012.9mb 69f 70f
2:54 9
mph
1013mb 69f 70f
2:48 8 9 mph 1013mb 69f 70f
2:42 8
mph
1013mb 69f 70f
2:36 8
mph
1013.1mb 69f 70f
2:30 7 8 mph 1013.2mb 69f 70f
2:24 7 8 mph 1013.2mb 69f 70f
2:18 7 8 mph 1013.2mb 69f 70f
2:12 7
mph
1013.2mb 69f 70f
2:06 6 7 mph 1013.3mb 69f 70f
2:00 6 7 mph 1013.3mb 69f 70f
1:54 5 6 mph 1013.4mb 69f 70f
1:48 5 6 mph 1013.5mb 68f 70f
1:42 6
mph
1013.5mb 68f 70f
1:36 6
mph
1013.7mb 68f 69f
1:30 5 7 mph 1013.8mb 68f 70f
1:24 6 7 mph 1013.9mb 68f 69f
1:18 7
mph
1014mb 68f 69f
1:12 6 7 mph 1014.1mb 68f 69f
1:06 7 8 mph 1014.1mb 68f 69f
1:00 7 8 mph 1014.2mb 67f 69f
12:54 7
mph
1014.2mb 67f 69f
12:48 7
mph
1014.3mb 67f 69f
12:42 7 8 mph 1014.4mb 67f 69f
12:36 8
mph
1014.5mb 67f 69f
12:30 8 9 mph 1014.5mb 67f 68f
12:24 8 9 mph 1014.6mb 67f 68f
12:18 8 9 mph 1014.6mb 67f 68f
12:12 8
mph
1014.6mb 67f 68f
12:06 7 9 mph 1014.6mb 67f 68f
12:00 8 9 mph 1014.7mb 67f 68f
11:54 9 10 mph 1014.7mb 67f 68f
11:48 10
mph
1014.8mb 67f 68f
11:42 9 11 mph 1014.8mb 67f 68f
11:36 10 13 mph 1014.8mb 67f 67f
11:30 11 13 mph 1014.9mb 67f 68f
11:24 13 14 mph 1014.9mb 67f 67f
11:18 13 14 mph 1015mb 67f 67f
11:12 13 14 mph 1015mb 67f 68f
11:06 14
mph
1015mb 67f 68f
11:00 13 14 mph 1015mb 67f 68f
10:54 13 14 mph 1014.9mb 67f 69f
10:48 11 13 mph 1014.9mb 67f 69f
10:42 8 9 mph 1014.9mb 67f 70f
10:36 2 3 mph 1014.8mb 67f 70f
10:30 2 5 mph 1014.8mb 67f 70f
10:24 2 3 mph 1014.8mb 67f 70f
10:18 3
mph
1014.8mb 67f 69f
10:12 3
mph
1014.8mb 67f 69f
10:06 2 3 mph 1014.8mb 67f 70f
10:00 2
mph
1014.8mb 67f 69f
9:54 2
mph
1014.8mb 67f 69f
9:48 2
mph
1014.7mb 67f 69f
9:42 2
mph
1014.6mb 67f 69f
9:36 2
mph
1014.6mb 67f 70f
9:30  -  2 mph 1014.5mb 67f 70f
9:24 2 3 mph 1014.5mb 67f 70f
9:18 2 5 mph 1014.4mb 67f 70f
9:12  -  1 mph 1014.4mb 67f 70f
9:06  -  3 mph 1014.3mb 67f 70f
9:00 2 5 mph 1014.3mb 67f 69f
8:54 3 6 mph 1014.2mb 67f 69f
8:48 3 5 mph 1014.2mb 67f 69f
8:42 3 6 mph 1014.2mb 67f 69f
8:36 2 5 mph 1014.1mb 67f 69f
8:30 5
mph
1014.1mb 67f 69f
8:24 5 6 mph 1014mb 67f 69f
8:18 3 6 mph 1014.1mb 67f 69f
8:12 3 6 mph 1014mb 67f 69f
8:06 5 7 mph 1014mb 67f 69f
8:00 5 6 mph 1014mb 67f 69f
7:54 5 6 mph 1013.9mb 67f 69f
7:48 5 6 mph 1013.8mb 68f 69f
7:42 6 8 mph 1013.7mb 68f 69f
7:36 5 6 mph 1013.7mb 68f 69f
7:30 6 8 mph 1013.7mb 68f 68f
7:24 6 7 mph 1013.6mb 68f 68f
7:18 6 7 mph 1013.5mb 68f 68f
7:12 5 7 mph 1013.4mb 68f 68f
7:06 5 7 mph 1013.3mb 68f 68f
7:00 6 8 mph 1013.2mb 68f 68f
6:54 6 7 mph 1013.1mb 68f 68f
6:48 7
mph
1013mb 68f 68f
6:42 6
mph
1013mb 68f 68f
6:36 5 7 mph 1013mb 68f 68f
6:30 5 6 mph 1013mb 68f 68f
6:24 3 5 mph 1012.9mb 68f 68f
6:18 1 2 mph 1013mb 68f 68f
6:12  -  1 mph 1013mb 68f 68f
6:06 1 2 mph 1013mb 68f 68f
6:00 1 3 mph 1012.9mb 68f 68f
5:54 2 6 mph 1012.9mb 68f 68f
5:48 3 5 mph 1012.8mb 68f 68f
5:42 3 5 mph 1012.8mb 68f 68f
5:36 3 5 mph 1012.8mb 68f 68f
5:30 3 6 mph 1012.8mb 68f 68f
5:24 3 5 mph 1012.8mb 68f 68f
5:18 3 6 mph 1012.7mb 68f 68f
5:12 5 6 mph 1012.7mb 68f 68f
5:06 2 5 mph 1012.7mb 69f 68f
5:00 2 3 mph 1012.7mb 69f 68f
4:54 2 3 mph 1012.6mb 69f 68f
4:48 1 2 mph 1012.6mb 69f 68f
4:42 2 3 mph 1012.6mb 69f 68f
4:36 1 3 mph 1012.5mb 69f 68f
4:30 2 3 mph 1012.5mb 69f 68f
4:24 2 3 mph 1012.4mb 69f 68f
4:18 3 5 mph 1012.5mb 69f 68f
4:12 3 5 mph 1012.5mb 69f 68f
4:06 3 6 mph 1012.5mb 69f 67f
4:00 3 6 mph 1012.4mb 69f 67f
3:54 5 6 mph 1012.4mb 69f 67f
3:48 6
mph
1012.4mb 69f 67f
3:42 3 5 mph 1012.4mb 69f 67f
3:36 3 6 mph 1012.3mb 69f 67f
3:30 3 6 mph 1012.3mb 69f 67f
3:24 5 6 mph 1012.3mb 69f 67f
3:18 5 6 mph 1012.4mb 69f 67f
3:12 3 5 mph 1012.4mb 69f 67f
3:06 3 5 mph 1012.4mb 69f 67f
3:00 3 5 mph 1012.4mb 69f 67f
2:54 3 5 mph 1012.4mb 69f 67f
2:48 3 5 mph 1012.5mb 69f 67f
2:42 3 5 mph 1012.5mb 69f 67f
2:36 3 5 mph 1012.5mb 69f 67f
2:30 5 6 mph 1012.6mb 69f 67f
2:24 5 6 mph 1012.6mb 69f 67f
2:18 5
mph
1012.6mb 69f 67f
2:12 5 6 mph 1012.5mb 69f 67f
2:06 5 7 mph 1012.6mb 69f 67f
2:00 5 6 mph 1012.5mb 69f 67f
1:54 3 6 mph 1012.5mb 69f 67f
1:48 5 6 mph 1012.5mb 69f 67f
1:42 3 5 mph 1012.4mb 69f 67f
1:36 3 5 mph 1012.4mb 69f 67f
1:30 3 5 mph 1012.4mb 69f 67f
1:24 3 5 mph 1012.4mb 69f 67f
1:18 5 6 mph 1012.4mb 69f 67f
1:12 5
mph
1012.4mb 69f 67f
1:06 3 5 mph 1012.4mb 69f 67f
1:00 5
mph
1012.4mb 69f 67f
12:54 5 6 mph 1012.4mb 69f 67f
12:48 5 6 mph 1012.4mb 69f 67f
12:42 5 6 mph 1012.4mb 69f 67f
12:36 5 6 mph 1012.4mb 69f 67f
12:30 5 6 mph 1012.4mb 69f 67f
12:24 5 6 mph 1012.4mb 69f 67f
12:18 5 6 mph 1012.4mb 69f 67f
12:12 6 7 mph 1012.4mb 69f 67f
12:06 6 7 mph 1012.3mb 69f 67f
12:00 6
mph
1012.3mb 69f 67f
ven. 09/19 11:54 5 6 mph 1012.4mb 69f 67f
11:48 3 5 mph 1012.4mb 69f 67f
11:42 3
mph
1012.3mb 69f 67f
11:36 3
mph
1012.3mb 69f 67f
11:30 2 3 mph 1012.3mb 69f 67f
11:24 2 5 mph 1012.3mb 69f 67f
11:18 3 5 mph 1012.3mb 69f 67f
11:12 3 5 mph 1012.2mb 69f 67f
11:06 2 3 mph 1012.1mb 69f 67f
11:00 3 5 mph 1012.1mb 69f 67f
10:54 3 5 mph 1012.1mb 69f 67f
10:48 2 3 mph 1012mb 69f 68f
10:42 3
mph
1012mb 69f 67f
10:36 2 3 mph 1012mb 69f 67f
10:30 2 5 mph 1012mb 70f 68f
10:24 3 5 mph 1012mb 70f 68f
10:18  -  mph - 70f -
10:12  -  mph - 70f -
10:06  -  mph - 71f -
10:00  -  mph 1011.9mb - -
9:54  -  mph 1011.9mb - -
9:48  -  mph 1011.9mb - 68f
9:42  -  mph 1011.8mb - 68f
9:36  -  mph 1011.8mb - 68f
9:30 8 9 mph 1011.8mb 71f -
9:24 8 9 mph 1011.8mb 71f 68f
9:18 9
mph
1011.7mb 71f 68f
9:12  -  mph 1011.7mb - -
9:06  -  mph 1011.7mb - -
9:00  -  mph 1011.6mb - -
8:54  -  mph 1011.6mb - -
8:48 6 7 mph 1011.6mb 71f 69f
8:42 6 7 mph 1011.6mb 71f 68f
8:36 5 6 mph 1011.5mb 71f 68f
8:30 5 6 mph 1011.5mb 71f 69f
8:24 5 6 mph 1011.3mb 71f 69f
8:18 5 6 mph 1011.3mb 71f 68f
8:12 5 6 mph 1011.3mb 71f 68f
8:06 6 7 mph 1011.2mb 71f 68f
8:00 6 7 mph 1011.2mb 71f 68f
7:54 6
mph
1011mb 71f 68f
7:48 3 6 mph 1010.9mb 71f 68f
7:42 5 6 mph 1010.9mb 71f 68f
7:36 6 8 mph 1010.9mb 71f 69f
7:30 7 8 mph 1010.8mb 71f 69f
7:24 7 8 mph 1010.8mb 71f 69f
7:18 7 8 mph 1010.9mb 70f 69f
7:12 6 7 mph 1010.9mb 70f 69f
7:06 6 8 mph 1010.8mb 70f 69f
7:00 7 8 mph 1010.9mb 70f 69f
6:54 7 8 mph 1010.8mb 70f 69f
6:48 7 8 mph 1010.8mb 70f 69f
6:42 7 8 mph 1010.7mb 70f 69f
6:36 7 8 mph 1010.8mb 70f 69f
6:30 7 8 mph 1010.8mb 70f 70f
6:24 7 8 mph 1010.8mb 70f 70f
6:18 8 9 mph 1010.7mb 69f 70f
6:12 9 10 mph 1010.7mb 69f 70f
6:06 9 10 mph 1010.7mb 70f 70f
6:00 8 9 mph 1010.7mb 70f 70f
5:54 8 10 mph 1010.7mb 70f 70f
5:48 8 9 mph 1010.7mb 70f 70f
5:42 7 9 mph 1010.8mb 70f 70f
5:36 8 9 mph 1010.8mb 71f 69f
5:30 8 10 mph 1010.8mb 71f 70f
5:24 8 10 mph 1010.8mb 71f 70f
5:18 9 10 mph 1010.8mb 71f 70f
5:12 9 10 mph 1010.8mb 71f 69f
5:06 10 11 mph 1010.8mb 71f 69f
5:00 10 13 mph 1010.8mb 71f 69f
4:54 10 11 mph 1010.8mb 71f 69f
4:48 10 13 mph 1010.9mb 71f 69f
4:42 11
mph
1010.9mb 71f 69f
4:36 10 13 mph 1010.8mb 71f 69f
4:30 11 13 mph 1010.8mb 71f 69f
4:24 10 13 mph 1010.8mb 71f 70f
4:18 11 13 mph 1010.8mb 71f 69f
4:12 11 13 mph 1010.8mb 71f 69f
4:06 11 13 mph 1010.9mb 71f 70f
4:00 10 11 mph 1011mb 71f 69f
3:54 10 11 mph 1011mb 71f 70f
3:48 10 11 mph 1011mb 71f 70f
3:42 9 11 mph 1011.1mb 71f 70f
3:36 9 11 mph 1011.1mb 71f 69f
3:30 10 11 mph 1011.1mb 71f 69f
3:24 10 11 mph 1011.1mb 71f 69f
3:18 9 10 mph 1011.1mb 71f 69f
3:12 9 10 mph 1011.1mb 71f 69f
3:06 9
mph
1011.1mb 71f 69f
3:00 8 9 mph 1011.1mb 71f 69f
2:54 9
mph
1011.1mb 71f 69f
2:48 9 10 mph 1011.2mb 70f 69f
2:42 9 11 mph 1011.3mb 70f 69f
2:36 9 11 mph 1011.3mb 70f 69f
2:30 10 11 mph 1011.4mb 70f 69f
2:24 11 13 mph 1011.5mb 70f 69f
2:18 10 11 mph 1011.6mb 70f 69f
2:12 10 11 mph 1011.7mb 70f 69f
2:06 10 11 mph 1011.7mb 70f 69f
2:00 10 11 mph 1011.8mb 70f 69f
1:54 9 11 mph 1011.9mb 70f 69f
1:48 10 11 mph 1012mb 70f 69f
1:42 9 10 mph 1012mb 70f 69f
1:36 9
mph
1012mb 70f 69f
1:30 8 9 mph 1012mb 69f 69f
1:24 8
mph
1012.1mb 69f 69f
1:18 7 9 mph 1012.1mb 69f 69f
1:12 8 9 mph 1012.2mb 69f 69f
1:06 8 9 mph 1012.2mb 69f 69f
1:00 7 8 mph 1012.4mb 69f 69f
12:54 8 9 mph 1012.5mb 69f 69f
12:48 8 9 mph 1012.5mb 69f 69f
12:42 8
mph
1012.5mb 68f 69f
12:36 7 8 mph 1012.6mb 68f 69f
12:30 8
mph
1012.5mb 68f 69f
12:24 7 8 mph 1012.6mb 68f 69f
12:18 7 8 mph 1012.6mb 68f 69f
12:12 7 8 mph 1012.6mb 68f 69f
12:06 7
mph
1012.6mb 68f 69f
12:00 6 7 mph 1012.7mb 68f 69f
11:54 6 7 mph 1012.8mb 67f 69f
11:48 7
mph
1012.8mb 67f 69f
11:42 7
mph
1012.8mb 67f 69f
11:36 6 8 mph 1012.9mb 67f 69f
11:30 7
mph
1012.9mb 67f 69f
11:24 7
mph
1012.9mb 67f 69f
11:18 7
mph
1012.9mb 67f 69f
11:12 6 7 mph 1013mb 67f 69f
11:06 6 7 mph 1013mb 67f 69f
11:00 6
mph
1013mb 67f 69f
10:54 6
mph
1013.1mb 67f 69f
10:48 6
mph
1013.1mb 67f 69f
10:42 6
mph
1013.1mb 67f 69f
10:36 6
mph
1013.1mb 67f 69f
10:30 5 6 mph 1013.1mb 67f 69f
10:24 5 6 mph 1013.1mb 67f 69f
10:18 5 6 mph 1013.2mb 67f 69f
10:12 5
mph
1013.2mb 67f 69f
10:06 3 5 mph 1013.2mb 67f 69f
10:00 3 5 mph 1013.3mb 67f 69f
9:54 3
mph
1013.3mb 67f 69f
9:48 3
mph
1013.3mb 67f 69f
9:42 3 5 mph 1013.3mb 67f 69f
9:36 5
mph
1013.3mb 67f 68f
9:30 3 5 mph 1013.3mb 67f 68f
9:24 5
mph
1013.2mb 67f 68f
9:18 5
mph
1013.2mb 67f 68f
9:12 3 5 mph 1013.2mb 67f 68f
9:06 5
mph
1013.1mb 67f 68f
9:00 5
mph
1013.1mb 67f 68f
8:54 5
mph
1013.1mb 67f 68f
8:48 5
mph
1013.2mb 67f 68f
8:42 5 6 mph 1013.2mb 67f 68f
8:36 5 6 mph 1013.2mb 67f 68f
8:30 5 6 mph 1013.1mb 67f 68f
8:24 6
mph
1013.1mb 67f 68f
8:18 6
mph
1013.1mb 67f 68f
8:12 6
mph
1013mb 67f 68f
8:06 6
mph
1013mb 67f 68f
8:00 6 7 mph 1013mb 67f 68f
7:54 6
mph
1013mb 67f 68f
7:48 5 7 mph 1012.9mb 67f 68f
7:42 7
mph
1012.8mb 67f 68f
7:36 6 7 mph 1012.7mb 67f 68f
7:30 6 7 mph 1012.7mb 67f 68f
7:24 6
mph
1012.6mb 67f 68f
7:18 5 6 mph 1012.6mb 67f 68f
7:12 5 6 mph 1012.5mb 67f 68f
7:06 5 6 mph 1012.4mb 67f 67f
7:00 3
mph
1012.4mb 67f 67f
6:54 3 5 mph 1012.3mb 67f 67f
6:48 3 5 mph 1012.3mb 67f 67f
6:42 3 5 mph 1012.3mb 67f 68f
6:36 3 5 mph 1012.2mb 67f 67f
6:30 3 5 mph 1012.2mb 67f 67f
6:24 3
mph
1012.1mb 67f 67f
6:18 2 3 mph 1012.1mb 67f 67f
6:12 1 2 mph 1012mb 67f 67f
6:06 2 3 mph 1011.9mb 67f 67f
6:00 3 5 mph 1011.9mb 67f 67f
5:54 2
mph
1011.9mb 67f 67f
5:48  -  1 mph 1011.9mb 67f 67f
5:42  -  3 mph 1011.8mb 67f 67f
5:36 2 3 mph 1011.9mb 67f 67f
5:30 2 5 mph 1011.8mb 67f 67f
5:24 3 5 mph 1011.8mb 67f 67f
5:18 2 5 mph 1011.8mb 67f 67f
5:12 3 5 mph 1011.8mb 67f 67f
5:06 3 5 mph 1011.8mb 67f 66f
5:00 5 6 mph 1011.7mb 67f 66f
4:54 3 5 mph 1011.8mb 67f 66f
4:48 3 5 mph 1011.8mb 68f 66f
4:42 5
mph
1011.8mb 68f 66f
4:36 3 5 mph 1011.7mb 68f 66f
4:30 3 6 mph 1011.7mb 68f 66f
4:24 3 5 mph 1011.7mb 68f 66f
4:18 2 3 mph 1011.8mb 68f 66f
4:12 3
mph
1011.7mb 68f 66f
4:06 5
mph
1011.7mb 68f 66f
4:00 2 3 mph 1011.7mb 68f 66f
3:54 1 2 mph 1011.8mb 68f 66f
3:48 2
mph
1011.8mb 68f 66f
3:42 2 3 mph 1011.9mb 68f 66f
3:36 3
mph
1011.8mb 68f 66f
3:30 2 3 mph 1011.8mb 68f 66f
3:24 2 3 mph 1011.8mb 69f 66f
3:18 3 5 mph 1011.7mb 69f 66f
3:12 3 6 mph 1011.7mb 69f 66f
3:06 6
mph
1011.7mb 69f 66f
3:00 5 6 mph 1011.6mb 69f 67f
2:54 3
mph
1011.6mb 69f 67f
2:48 3 6 mph 1011.6mb 69f 67f
2:42 6
mph
1011.6mb 69f 67f
2:36 6
mph
1011.6mb 69f 67f
2:30 6 7 mph 1011.6mb 70f 67f
2:24 7 8 mph 1011.6mb 70f 67f
2:18 7 8 mph 1011.7mb 70f 67f
2:12 7 8 mph 1011.7mb 70f 67f
2:06 8 9 mph 1011.7mb 70f 68f
2:00 8 9 mph 1011.7mb 70f 68f
1:54 6
mph
1011.6mb 70f 68f
1:48 6
mph
1011.6mb 70f 68f
1:42 3
mph
1011.5mb 70f 68f
1:36 1 2 mph 1011.5mb 71f 68f
1:30 2
mph
1011.5mb 71f 68f
1:24  -  1 mph 1011.4mb 71f 68f
1:18 1
mph
1011.4mb 71f 68f
1:12  -  2 mph 1011.3mb 71f 68f
1:06 2 3 mph 1011.2mb 71f 68f
1:00 3
mph
1011.2mb 71f 68f
12:54 3 5 mph 1011.2mb 71f 69f
12:48 3 5 mph 1011.2mb 71f 69f
12:42 3 5 mph 1011.2mb 71f 69f
12:36 5 6 mph 1011.2mb 71f 69f
12:30 6 7 mph 1011.2mb 71f 69f
12:24 7 8 mph 1011.2mb 71f 69f
12:18 8 9 mph 1011.2mb 70f 69f
12:12 6 8 mph 1011.1mb 70f 69f
12:06 7 9 mph 1011.1mb 70f 69f
12:00 8 9 mph 1011.1mb 70f 69f
jeu. 09/18 11:54  -  2 mph 1011.1mb 70f 69f
11:48 2
mph
1011mb 70f 69f
11:42 2 3 mph 1011mb 70f 69f
11:36 3 5 mph 1011mb 70f 69f
11:30 5 6 mph 1011mb 70f 69f
11:24 6
mph
1011.1mb 70f 70f
11:18 6 9 mph 1011.1mb 70f 69f
11:12 9 11 mph 1011.1mb 70f 69f
11:06 11 13 mph 1011.1mb 70f 69f
11:00 11 14 mph 1011.1mb 70f 69f
10:54 14 15 mph 1011.1mb 70f 69f
10:48 13 14 mph 1011.1mb 70f 69f
10:42 14 15 mph 1011mb 70f 69f
10:36 6 7 mph 1011mb 70f 70f
10:30 6
mph
1010.9mb 70f 70f
10:24 5
mph
1010.9mb 70f 70f
10:18 5 6 mph 1010.9mb 70f 70f
10:12 5
mph
1010.8mb 70f 70f
10:06 3
mph
1010.8mb 71f 70f
10:00 2 3 mph 1010.8mb 71f 70f
9:54 1 2 mph 1010.8mb 71f 70f
9:48  -  1 mph 1010.7mb 71f 70f
9:42  -  2 mph 1010.7mb 71f 70f
9:36 2 3 mph 1010.8mb 71f 70f
9:30 3 5 mph 1010.8mb 71f 70f
9:24 5 7 mph 1010.8mb 71f 70f
9:18 7
mph
1010.7mb 71f 70f
9:12 7 9 mph 1010.7mb 71f 70f
9:06 9 10 mph 1010.7mb 71f 70f
9:00 8 10 mph 1010.7mb 71f 70f
8:54 10 11 mph 1010.6mb 70f 69f
8:48  -  mph 1010.6mb 71f 69f
8:42  -  mph 1010.5mb 71f 70f
8:36  -  mph 1010.5mb 70f 70f
8:30 10 11 mph 1010.5mb 70f 69f
8:24 9 10 mph 1010.5mb 70f 69f
8:18 10 13 mph 1010.5mb 70f 69f
8:12 11 14 mph 1010.4mb 70f 69f
8:06 13 15 mph 1010.3mb 70f 70f
8:00 10 14 mph 1010.2mb 70f 70f
7:54 13 17 mph 1010.2mb 71f 70f
7:48 16 21 mph 1010.1mb 71f 70f
7:42 17 20 mph 1010mb 71f 70f
7:36 16 20 mph 1009.9mb 71f 71f
7:30 15 17 mph 1009.8mb 71f -
7:24 13 16 mph 1009.9mb 71f -
7:18 14 15 mph 1009.9mb 71f 70f
7:12 10 11 mph 1009.9mb 71f 70f
7:06 9 10 mph 1009.9mb 71f 69f
7:00 8 11 mph 1009.9mb 71f 69f
6:54 10 13 mph 1009.9mb 71f 69f
6:48 11 13 mph 1009.9mb 71f 69f
6:42 11 14 mph 1009.8mb 71f 69f
6:36 13 14 mph 1009.9mb 71f 69f
6:30 11 14 mph 1010mb 70f 69f
6:24 13 14 mph 1010mb 71f 69f
6:18 14 16 mph 1010mb 71f 69f
6:12 13 14 mph 1009.9mb 71f 69f
6:06 11 14 mph 1009.9mb 71f 69f
6:00 14 16 mph 1009.9mb 71f 69f
5:54 14 16 mph 1009.9mb 71f 69f
5:48 14 15 mph 1009.8mb 71f 69f
5:42 14 15 mph 1009.8mb 71f 69f
5:36 14 15 mph 1009.8mb 70f 69f
5:30 14 15 mph 1009.8mb 70f 69f
5:24 14 15 mph 1009.9mb 71f 69f
5:18 13 15 mph 1009.9mb 72f 69f
5:12 14 16 mph 1009.9mb 72f 69f
5:06 14 15 mph 1010mb 71f 69f
5:00 13 15 mph 1010mb 71f 69f
4:54 15 17 mph 1010mb 71f 69f
4:48 15 16 mph 1010mb 71f 69f
4:42 15 17 mph 1010mb 71f 69f
4:36 14 16 mph 1010mb 71f 69f
4:30 15 16 mph 1010mb 72f 69f
4:24 14 15 mph 1010mb 72f 69f
4:18 13 14 mph 1010mb 73f 69f
4:12 13 14 mph 1010mb 73f 69f
4:06 13 14 mph 1010.1mb 72f 69f
4:00 13
mph
1010.1mb 72f 69f
3:54 10 11 mph 1010.2mb 72f 69f
3:48 10 11 mph 1010.2mb 72f 69f
3:42 9 11 mph 1010.3mb 73f 69f
3:36 9 10 mph 1010.3mb 73f 69f
3:30 9 10 mph 1010.4mb 73f 69f
3:24 9 10 mph 1010.4mb 73f 69f
3:18 9 10 mph 1010.4mb 73f 69f
3:12 9
mph
1010.5mb 73f 69f
3:06 8 9 mph 1010.6mb 73f 69f
3:00 8 9 mph 1010.6mb 73f 69f
2:54 9
mph
1010.6mb 73f 69f
2:48 8 9 mph 1010.8mb 73f 69f
2:42 9
mph
1010.8mb 73f 69f
2:36 9
mph
1010.9mb 73f 69f
2:30 8 9 mph 1010.9mb 73f 69f
2:24 9 10 mph 1011mb 73f 69f
2:18 8 9 mph 1011.1mb 73f 69f
2:12 9
mph
1011.1mb 73f 69f
2:06 9 10 mph 1011.2mb 73f 69f
2:00 9 10 mph 1011.2mb 73f 69f
1:54 9 10 mph 1011.3mb 73f 69f
1:48 8 11 mph 1011.4mb 73f 69f
1:42 9 10 mph 1011.5mb 73f 69f
1:36 10 11 mph 1011.5mb 73f 69f
1:30 10 11 mph 1011.6mb 73f 69f
1:24 10 11 mph 1011.6mb 73f 69f
1:18 10 11 mph 1011.7mb 73f 69f
1:12 9 11 mph 1011.7mb 73f 69f
1:06 10 11 mph 1011.7mb 73f 69f
1:00 10 11 mph 1011.8mb 73f 69f
12:54 10 11 mph 1011.8mb 73f 69f
12:48 10 11 mph 1011.8mb 73f 69f
12:42 10 11 mph 1011.9mb 73f 69f
12:36 9 10 mph 1011.9mb 73f 69f
12:30 10
mph
1011.9mb 73f 69f
12:24 9 10 mph 1012mb 73f 69f
12:18 10 11 mph 1012mb 73f 69f
12:12 11 13 mph 1012.1mb 73f 69f
12:06 11 13 mph 1012.1mb 73f 69f
12:00 11 13 mph 1012.2mb 73f 69f
11:54 10 11 mph 1012.3mb 73f 69f
11:48 10 13 mph 1012.3mb 73f 69f
11:42 11 13 mph 1012.3mb 73f 69f
11:36 13 14 mph 1012.4mb 73f 69f
11:30 13 15 mph 1012.4mb 73f 69f
11:24 13 15 mph 1012.5mb 73f 69f
11:18 13 14 mph 1012.5mb 73f 69f
11:12 14 17 mph 1012.5mb 73f 69f
11:06 16 18 mph 1012.5mb 73f 69f
11:00 16 18 mph 1012.5mb 73f 69f
10:54 10 14 mph 1012.5mb 73f 70f
10:48 9
mph
1012.5mb 73f 70f
10:42 8 9 mph 1012.4mb 73f 69f
10:36 9 11 mph 1012.5mb 73f 69f
10:30 10 13 mph 1012.4mb 73f 69f
10:24 11 13 mph 1012.4mb 73f 68f
10:18 10
mph
1012.4mb 73f 68f
10:12 7 8 mph 1012.4mb 73f 68f
10:06 7 9 mph 1012.3mb 72f 68f
10:00 8
mph
1012.2mb 72f 68f
9:54 7 8 mph 1012.2mb 72f 68f
9:48 7
mph
1012.2mb 72f 68f
9:42 7
mph
1012.1mb 72f 68f
9:36 6 8 mph 1012.1mb 72f 68f
9:30 7 8 mph 1012mb 72f 68f
9:24 6
mph
1012mb 72f 68f
9:18 6
mph
1011.9mb 72f 69f
9:12 5 6 mph 1011.9mb 72f 69f
9:06 5 6 mph 1011.9mb 71f 69f
9:00 3 5 mph 1011.9mb 72f 68f
8:54 3 5 mph 1011.9mb 71f 68f
8:48 3 5 mph 1011.8mb 71f 68f
8:42 5 6 mph 1011.8mb 71f 68f
8:36 5 7 mph 1011.7mb 71f 68f
8:30 6 7 mph 1011.7mb 71f 69f
8:24 6 7 mph 1011.6mb 71f 69f
8:18 5 6 mph 1011.5mb 71f 70f
8:12 5 6 mph 1011.4mb 71f 70f
8:06 5 6 mph 1011.4mb 71f 69f
8:00 5 6 mph 1011.3mb 71f 70f
7:54  -  1 mph 1011.2mb 71f 71f
7:48  -  2 mph 1011.1mb 71f 69f
7:42 2 3 mph 1011.1mb 70f 68f
7:36 3 5 mph 1011.1mb 69f 69f
7:30 5
mph
1011.1mb 69f 69f
7:24  -  1 mph 1011mb 69f 69f
7:18  -  1 mph 1010.9mb 68f 69f
7:12  -  mph 1010.9mb 68f 68f
7:06  -  1 mph 1010.8mb 68f 68f
7:00  -  2 mph 1010.7mb 68f 67f
6:54  -  2 mph 1010.6mb 68f 68f
6:48  -  1 mph 1010.5mb 67f 68f
6:42 1
mph
1010.4mb 67f 68f
6:36  -  mph 1010.3mb 67f 67f
6:30  -  mph 1010.2mb 67f 67f
6:24  -  1 mph 1010.1mb 67f 68f
6:18  -  mph 1010mb 67f 67f
6:12  -  mph 1010mb 67f 67f
6:06  -  mph 1009.9mb 67f 68f
6:00  -  mph 1009.9mb 67f 68f
5:54  -  1 mph 1009.8mb 67f 68f
5:48  -  1 mph 1009.7mb 67f 68f
5:42 1 2 mph 1009.7mb 67f 68f
5:36 2
mph
1009.6mb 67f 68f
5:30 2 3 mph 1009.6mb 67f 68f
5:24 3
mph
1009.6mb 67f 69f
5:18 3
mph
1009.5mb 67f 69f
5:12 2 3 mph 1009.5mb 67f 68f
5:06 3
mph
1009.4mb 68f 69f
5:00 2 3 mph 1009.4mb 68f 69f
4:54 1 2 mph 1009.3mb 68f 69f
4:48 2 5 mph 1009.2mb 68f 69f
4:42 3
mph
1009.2mb 67f 68f
4:36 2 3 mph 1009.3mb 68f 69f
4:30 3
mph
1009.2mb 67f 69f
4:24 2 3 mph 1009.2mb 67f 69f
4:18 2
mph
1009.2mb 67f 69f
4:12 2
mph
1009.2mb 67f 69f
4:06 2
mph
1009.2mb 67f 69f
4:00 2
mph
1009.2mb 67f 69f
3:54 1
mph
1009.1mb 67f 69f
3:48  -  1 mph 1009.1mb 68f 69f
3:42  -  2 mph 1009mb 67f 69f
3:36 2
mph
1009.1mb 67f 69f
3:30 2 3 mph 1009.1mb 67f 69f
3:24 2 5 mph 1009.2mb 68f 69f
3:18 5 6 mph 1009.2mb 68f 69f
3:12 6
mph
1009.2mb 68f 69f
3:06 6 7 mph 1009.2mb 68f 70f
3:00 5 6 mph 1009.2mb 68f 70f
2:54 5 6 mph 1009.1mb 68f 71f
2:48 2 7 mph 1009mb 68f 71f
2:42 5 7 mph 1009mb 68f 71f
2:36 5 7 mph 1009mb 68f 70f
2:30 2 8 mph 1009mb 68f 71f
2:24 6 8 mph 1009mb 68f 71f
2:18 5 7 mph 1009mb 68f 71f
2:12 5 7 mph 1009mb 68f 71f
2:06 6 9 mph 1009mb 68f 71f
2:00 6 8 mph 1009mb 68f 71f
1:54 5 7 mph 1009mb 68f 71f
1:48 3 5 mph 1009mb 68f 70f
1:42 2 5 mph 1008.9mb 68f 70f
1:36 1 6 mph 1008.9mb 68f 70f
1:30 5 8 mph 1008.8mb 68f 70f
1:24 6 10 mph 1008.7mb 68f 70f
1:18 8 10 mph 1008.7mb 68f 70f
1:12 8 11 mph 1008.7mb 69f 70f
1:06 10 13 mph 1008.6mb 69f 70f
1:00 9 11 mph 1008.6mb 69f 71f
12:54 11 14 mph 1008.6mb 69f 71f
12:48 11 14 mph 1008.5mb 70f 71f
12:42 9 14 mph 1008.5mb 70f 70f
12:36 10 13 mph 1008.5mb 71f 70f
12:30 10 14 mph 1008.4mb 71f 70f
12:24 11 14 mph 1008.4mb 72f 70f
12:18 8 15 mph 1008.5mb 72f 71f
12:12 11 14 mph 1008.5mb 72f 71f
12:06 9 11 mph 1008.5mb 72f 71f
12:00 9 11 mph 1008.6mb 72f 71f
mer. 09/17 11:54 8 14 mph 1008.5mb 72f 71f
11:48 9 11 mph 1008.4mb 72f 71f
11:42 9 10 mph 1008.3mb 72f 71f
11:36 8 11 mph 1008.3mb 72f 71f
11:30 8 11 mph 1008.3mb 72f 71f
11:24 10 11 mph 1008.3mb 72f 71f
11:18 6 9 mph 1008.2mb 72f 72f
11:12 8 10 mph 1008.2mb 72f 72f
11:06 7 11 mph 1008.1mb 72f 72f
11:00 8 11 mph 1008.1mb 72f 72f
10:54 8 10 mph 1008.1mb 72f 72f
10:48 7 9 mph 1008.1mb 72f 72f
10:42 8 9 mph 1008.1mb 72f 72f
10:36 6 7 mph 1008.1mb 72f 72f
10:30 6 7 mph 1008.1mb 72f 72f
10:24 5 6 mph 1008.1mb 72f 72f
10:18 5 6 mph 1008mb 72f 71f
10:12 5 6 mph 1007.9mb 72f 72f
10:06 5 6 mph 1007.8mb 72f 72f
10:00 3
mph
1007.8mb 72f 72f
9:54 2
mph
1007.7mb 73f 72f
9:48 1
mph
1007.6mb 73f 72f
9:42  -  2 mph 1007.6mb 73f 72f
9:36  -  3 mph 1007.6mb 73f 72f
9:30 3 5 mph 1007.5mb 73f 72f
9:24 3 6 mph 1007.5mb 73f 72f
9:18 5
mph
1007.4mb 73f 72f
9:12 3 5 mph 1007.4mb 73f 72f
9:06 3 6 mph 1007.3mb 73f 72f
9:00 6 8 mph 1007.2mb 73f 72f
8:54 7 9 mph 1007.2mb 73f 72f
8:48 7 8 mph 1007.1mb 73f 72f
8:42 6 8 mph 1007.1mb 73f 72f
8:36 9
mph
1007mb 73f 72f
8:30 8 9 mph 1007mb 73f 72f
8:24 8 10 mph 1006.9mb 73f 72f
8:18 7 8 mph 1006.8mb 72f 72f
8:12 8 13 mph 1006.7mb 72f 72f
8:06 10 14 mph 1006.6mb 72f 72f
8:00 13 14 mph 1006.5mb 72f 72f
7:54 11 14 mph 1006.5mb 72f 72f
7:48 10 14 mph 1006.5mb 72f 72f
7:42 11 14 mph 1006.4mb 72f 72f
7:36 10 14 mph 1006.3mb 72f 73f
7:30 8 13 mph 1006.3mb 72f 73f
7:24 11 15 mph 1006.3mb 72f 73f
7:18 13 15 mph 1006.2mb 72f 73f
7:12 14 16 mph 1006.2mb 72f 73f
7:06 14 16 mph 1006.1mb 72f 73f
7:00 14 17 mph 1006.1mb 72f 73f
6:54 15 18 mph 1006.1mb 72f 74f
6:48 14 17 mph 1006mb 71f 74f
6:42 10 15 mph 1006mb 72f 75f
6:36 11 14 mph 1005.9mb 72f 75f
6:30 10 14 mph 1005.9mb 72f 75f
6:24 13 15 mph 1005.9mb 72f 75f
6:18 11 16 mph 1005.8mb 72f 76f
6:12 14 18 mph 1005.7mb 72f 76f
6:06 14 18 mph 1005.7mb 71f 76f
6:00 10 15 mph 1005.7mb 71f 77f
5:54 8 13 mph 1005.7mb 71f 78f
5:48 7 11 mph 1005.7mb 72f 78f
5:42 6 14 mph 1005.6mb 73f 79f
5:36 9 13 mph 1005.5mb 73f 79f
5:30 11 15 mph 1005.4mb 73f 78f
5:24 11 16 mph 1005.4mb 73f 77f
5:18 15 17 mph 1005.4mb 73f 76f
5:12 13 16 mph 1005.5mb 72f 77f
5:06 11 14 mph 1005.5mb 71f 76f
5:00 10 13 mph 1005.5mb 71f 77f
4:54 9 13 mph 1005.5mb 71f 77f
4:48 11 13 mph 1005.6mb 70f 78f
4:42 11 15 mph 1005.6mb 71f 77f
4:36 6 9 mph 1005.7mb 72f 76f
4:30 10 11 mph 1005.7mb 73f 76f
4:24 8 14 mph 1005.9mb 73f 76f
4:18 13 16 mph 1005.9mb 73f 76f
4:12 10 14 mph 1005.9mb 72f 76f
4:06 5 8 mph 1006mb 72f 78f
4:00 6 8 mph 1006.1mb 72f 78f